Evergreen, AL

5:17 PM CDT on September 26, 2017 (GMT -0500)
Middleton

Weather History for KGZH - February, 2013

Change the Weather History Date:

Thursday, February 14, 2013

  Actual Average (KPRN) Record (KPRN)
Temperature  
Mean Temperature 47 °F -  
Max Temperature 59 °F 64 °F 82 °F (1962)
Min Temperature 35 °F 37 °F 17 °F (1971)
Degree Days  
Heating Degree Days 18    
Moisture  
Dew Point 36 °F    
Average Humidity 82    
Maximum Humidity 93    
Minimum Humidity 42    
Precipitation  
Precipitation 0.00 in - - ()
Sea Level Pressure  
Sea Level Pressure 30.09 in    
Wind  
Wind Speed 1 mph (North)    
Max Wind Speed 7 mph    
Max Gust Speed -    
Visibility 5 miles    
Events Fog    
Averages and records for this station are not official NWS values.
T = Trace of Precipitation, MM = Missing Value Source: NWS Daily Summary

Daily Weather History Graph

Daily Weather History Graph

Search for Another Location

Airport or City:

Trip Planner

Search our weather history database for the weather conditions in past years. The results will help you decide how hot, cold, wet, or windy it might be!

Date:

Astronomy

Feb. 14, 2013 Rise Set
Actual Time 6:30 AM CST 5:34 PM CST
Civil Twilight 6:05 AM CST 5:59 PM CST
Nautical Twilight 5:36 AM CST 6:28 PM CST
Astronomical Twilight 5:08 AM CST 6:56 PM CST
Moon 8:53 AM CST (2/14) 10:13 PM CST (2/14)
Length of Visible Light 11h 54m
Length of Day
11h 04m
Waxing Crescent, 22% of the Moon is Illuminated
Feb 14
Waxing Crescent
Feb 17
First Quarter
Feb 25
Full
Mar 4
Last Quarter
Mar 11
New

Hourly Weather History & Observations

Time (CST) Temp. Windchill Dew Point Humidity Pressure Visibility Wind Dir Wind Speed Gust Speed Precip Events Conditions
12:17 AM 39.2 °F - 37.4 °F 93% 30.07 in 5.0 mi Calm Calm - N/A   Clear
12:51 AM 37.4 °F - 35.6 °F 93% 30.07 in 1.8 mi Calm Calm - N/A   Clear
12:53 AM 39.0 °F - 36.0 °F 89% 30.07 in 1.5 mi Calm Calm - N/A   Clear
1:07 AM 37.4 °F - 35.6 °F 93% 30.07 in 2.0 mi Calm Calm - N/A   Clear
1:15 AM 37.4 °F - 35.6 °F 93% 30.07 in 1.5 mi Calm Calm - N/A   Clear
1:41 AM 37.4 °F - 35.6 °F 93% 30.06 in 3.0 mi Calm Calm - N/A   Clear
1:46 AM 37.4 °F - 35.6 °F 93% 30.06 in 1.8 mi Calm Calm - N/A   Clear
1:53 AM 37.0 °F - 35.1 °F 93% 30.06 in 1.0 mi Calm Calm - N/A   Clear
2:02 AM 35.6 °F - 33.8 °F 93% 30.06 in 0.5 mi Calm Calm - N/A Fog Fog
2:19 AM 37.4 °F - 33.8 °F 87% 30.06 in 2.0 mi Calm Calm - N/A   Clear
2:28 AM 35.6 °F - 33.8 °F 93% 30.06 in 0.8 mi Calm Calm - N/A   Clear
2:41 AM 35.6 °F - 33.8 °F 93% 30.06 in 0.5 mi Calm Calm - N/A Fog Fog
2:53 AM 36.0 °F - 33.1 °F 89% 30.07 in 0.5 mi Calm Calm - N/A Fog Fog
3:05 AM 35.6 °F - 33.8 °F 93% 30.07 in 1.2 mi Calm Calm - N/A   Partly Cloudy
3:08 AM 37.4 °F - 33.8 °F 87% 30.07 in 3.0 mi Calm Calm - N/A   Partly Cloudy
3:38 AM 35.6 °F - 33.8 °F 93% 30.08 in 1.8 mi Calm Calm - N/A   Clear
3:47 AM 35.6 °F - 33.8 °F 93% 30.08 in 3.0 mi Calm Calm - N/A   Clear
3:53 AM 36.0 °F - 34.0 °F 93% 30.09 in 4.0 mi Calm Calm - N/A   Clear
4:53 AM 37.0 °F 34.5 °F 34.0 °F 89% 30.08 in 5.0 mi NNW 3.5 mph - N/A   Clear
5:53 AM 37.9 °F 35.5 °F 36.0 °F 93% 30.09 in 6.0 mi NNW 3.5 mph - N/A   Clear
6:53 AM 37.9 °F - 35.1 °F 89% 30.11 in 5.0 mi Calm Calm - N/A   Clear
7:53 AM 39.9 °F - 37.0 °F 89% 30.15 in 6.0 mi Calm Calm - N/A   Clear
8:53 AM 42.1 °F - 37.9 °F 85% 30.17 in 8.0 mi Calm Calm - N/A   Clear
9:53 AM 46.9 °F - 39.9 °F 77% 30.16 in 10.0 mi NNE 4.6 mph - N/A   Clear
10:53 AM 48.9 °F - 39.0 °F 69% 30.16 in 10.0 mi ENE 3.5 mph - N/A   Clear
11:53 AM 51.1 °F - 39.0 °F 63% 30.15 in 10.0 mi Calm Calm - N/A   Clear
12:53 PM 54.0 °F - 39.0 °F 57% 30.10 in 10.0 mi NNW 6.9 mph - N/A   Clear
1:53 PM 57.0 °F - 37.0 °F 47% 30.08 in 10.0 mi Calm Calm - N/A   Clear
2:53 PM 59.0 °F - 37.0 °F 44% 30.07 in 10.0 mi NNW 5.8 mph - N/A   Clear
3:43 PM 59.0 °F - 35.6 °F 42% 30.07 in 2.5 mi Calm Calm - N/A   Haze
3:53 PM 59.0 °F - 36.0 °F 42% 30.07 in 10.0 mi NNE 5.8 mph - N/A   Clear
4:53 PM 57.0 °F - 35.1 °F 44% 30.07 in 10.0 mi North 6.9 mph - N/A   Clear
5:53 PM 51.1 °F - 39.0 °F 63% 30.08 in 10.0 mi Calm Calm - N/A   Clear
6:53 PM 46.0 °F 44.8 °F 41.0 °F 83% 30.09 in 10.0 mi NW 3.5 mph - N/A   Clear
7:53 PM 43.0 °F - 39.0 °F 86% 30.11 in 10.0 mi Calm Calm - N/A   Clear
8:53 PM 41.0 °F - 37.9 °F 89% 30.12 in 6.0 mi Calm Calm - N/A   Clear
9:46 PM 39.2 °F - 37.4 °F 93% 30.12 in 2.0 mi Calm Calm - N/A   Clear
9:53 PM 39.9 °F - 37.0 °F 89% 30.12 in 5.0 mi Calm Calm - N/A   Clear
10:53 PM 39.0 °F - 36.0 °F 89% 30.12 in 6.0 mi Calm Calm - N/A   Clear
11:53 PM 37.0 °F - 34.0 °F 89% 30.12 in 6.0 mi Calm Calm - N/A   Clear
11:58 PM 37.4 °F - 33.8 °F 87% 30.11 in 1.8 mi Calm Calm - N/A   Clear